Vertical_Velocity
-6 -10 1 -9 -8 -5 -2 -5 1 -1 -0 6 24 16 10 -2 4 7 -2 1 3 -1 0 -5 1 2 4 -2 -3 4 4 0
-4 -11 -6 -4 -4 -8 -7 -4 -6 -3 -0 -4 4 7 -5 6 5 3 1 -6 4 4 -1 1 -1 -3 0 1 1 -1 3 1
-7 -6 -9 -4 -6 -4 -11 -2 -4 -11 3 -1 5 9 22 0 12 -6 12 -2 -4 2 3 -3 0 -0 0 -1 0 -3 -3 -0
-6 -7 -4 -6 -5 -2 -0 -16 -2 -8 9 -0 -4 -5 -2 27 11 6 11 0 -13 -3 5 2 -2 -1 -7 -1 -2 -2 -1 -2
-6 -3 -7 -5 -4 -2 -3 -6 -6 -5 1 1 -3 -2 -1 18 -10 9 -3 -2 -1 -0 -1 1 -1 1 -1 -4 1 0 2 -2
-1 -2 -1 -4 -2 -3 -2 -2 -2 -3 -7 4 -5 -5 -6 -5 24 16 3 1 15 11 1 -1 3 -1 5 2 -6 1 1 5
-2 -2 -3 -3 -0 3 -3 -2 2 1 -4 6 -3 -2 -9 15 29 77 5 7 4 0 6 1 -1 0 2 -2 -0 -2 5 1
-3 -3 -2 -4 -2 -1 0 -6 2 3 -4 3 8 9 1 -9 16 -52 120 33 19 8 21 7 -6 -2 -2 7 5 -3 3 -4
-1 1 1 -1 1 4 2 -5 1 4 -2 7 15 9 0 -3 5 11 -46 -19 10 -3 117 8 0 0 8 11 3 5 -2 3
-1 -0 -2 -1 2 5 -3 -4 1 6 6 4 11 20 7 -2 0 -10 12 -24 16 -60 18 2 -6 10 6 11 7 8 1 2
-2 -2 -1 1 9 2 -8 5 4 10 7 -1 24 16 13 -4 -1 -2 10 -3 8 12 -5 -7 0 1 4 7 2 -2 1 5
0 -1 0 3 12 -12 -2 -5 4 8 11 5 28 4 10 6 -1 -10 6 11 17 -14 8 2 -2 0 7 4 -1 6 5 0
-1 -2 0 1 -2 -9 -3 -2 1 -6 47 16 11 11 13 4 2 -7 -25 -31 -5 -6 -11 -2 2 -5 7 1 1 4 2 5
-1 -4 -3 1 -4 0 -6 -2 -1 8 -1 21 5 -1 6 3 7 11 12 2 13 -0 -4 -8 1 -1 3 -0 0 -2 1 -2
1 -1 1 2 1 -0 5 2 2 1 5 10 5 -1 -1 2 2 -6 -8 5 -4 -4 -1 -2 -6 -2 -3 4 2 4 1 2
-1 -4 -4 -4 -1 3 3 -1 7 2 -5 -1 -12 -3 0 16 2 -4 10 4 -3 14 2 6 3 4 4 5 5 3 -6 2
-2 -3 -2 -3 -4 -3 1 4 -5 -10 -4 -11 21 -6 18 -3 -8 2 -4 7 -14 -6 -6 -6 -8 -10 5 3 3 -6 4 -5
-2 -3 -2 -1 3 -6 -5 -0 6 5 9 5 -2 2 3 -4 8 -1 -5 3 -10 8 9 -1 4 -13 -6 -6 -12 -12 -6 1
0 -0 -1 3 2 4 3 2 -1 6 6 3 2 16 -3 -2 7 4 3 4 -11 -7 -3 -1 -2 0 4 -1 8 4 0 -1
Height
1487 1482 1480 1475 1471 1466 1461 1459 1458 1454 1453 1455 1457 1457 1461 1465 1466 1465 1467 1470 1476 1481 1485 1490 1492 1495 1499 1500 1505 1509 1508 1510
1490 1484 1476 1471 1467 1462 1458 1455 1450 1447 1446 1449 1449 1451 1452 1455 1456 1462 1462 1462 1467 1474 1477 1482 1489 1490 1493 1497 1499 1503 1506 1508
1489 1484 1476 1469 1463 1457 1454 1449 1446 1446 1445 1442 1442 1441 1444 1446 1448 1453 1455 1456 1460 1465 1470 1472 1478 1484 1488 1490 1493 1496 1501 1505
1487 1481 1475 1467 1459 1454 1449 1445 1440 1438 1437 1435 1431 1430 1430 1436 1439 1441 1446 1449 1450 1455 1461 1464 1467 1474 1479 1484 1487 1490 1492 1498
1487 1480 1473 1465 1458 1451 1445 1440 1435 1430 1429 1426 1425 1423 1421 1427 1426 1430 1436 1440 1440 1441 1449 1456 1461 1464 1469 1474 1480 1484 1487 1489
1487 1480 1472 1464 1456 1448 1441 1435 1431 1426 1422 1421 1417 1415 1415 1416 1418 1421 1424 1430 1437 1438 1443 1451 1460 1460 1462 1466 1472 1477 1481 1485
1487 1481 1471 1461 1454 1445 1438 1431 1426 1421 1417 1414 1411 1409 1407 1409 1415 1414 1410 1421 1432 1437 1440 1443 1453 1461 1461 1464 1464 1470 1474 1478
1487 1478 1467 1459 1451 1442 1435 1429 1424 1417 1413 1410 1406 1404 1402 1401 1402 1401 1360 1404 1424 1433 1432 1433 1446 1453 1461 1459 1461 1463 1469 1471
1488 1480 1469 1460 1451 1442 1434 1428 1422 1416 1412 1406 1400 1398 1398 1398 1383 1395 1403 1408 1423 1393 1377 1422 1436 1446 1456 1456 1457 1458 1463 1465
1489 1481 1471 1461 1452 1443 1436 1430 1423 1418 1411 1403 1400 1393 1393 1398 1401 1407 1413 1406 1416 1432 1426 1424 1436 1443 1446 1449 1452 1451 1457 1458
1489 1481 1473 1464 1455 1447 1441 1433 1422 1420 1411 1406 1399 1390 1391 1399 1402 1406 1411 1416 1418 1424 1419 1432 1436 1441 1443 1445 1446 1445 1451 1453
1491 1484 1477 1469 1459 1452 1447 1432 1421 1421 1414 1408 1398 1391 1393 1399 1406 1408 1418 1415 1415 1420 1425 1428 1435 1438 1437 1437 1440 1441 1443 1446
1493 1486 1480 1473 1464 1459 1453 1445 1436 1419 1421 1407 1401 1400 1403 1402 1405 1404 1416 1410 1427 1429 1421 1434 1434 1438 1435 1436 1437 1435 1438 1440
1494 1488 1481 1477 1472 1467 1459 1452 1441 1428 1421 1414 1408 1408 1408 1410 1415 1417 1419 1420 1418 1425 1421 1437 1434 1436 1434 1432 1432 1432 1433 1433
1496 1490 1485 1480 1477 1472 1466 1457 1448 1441 1433 1422 1418 1419 1420 1420 1417 1418 1422 1426 1426 1431 1433 1433 1433 1432 1432 1429 1428 1428 1429 1427
1499 1495 1490 1485 1480 1476 1471 1464 1455 1448 1445 1438 1436 1436 1435 1434 1426 1432 1433 1430 1437 1428 1433 1434 1434 1433 1429 1431 1424 1424 1423 1426
1504 1500 1496 1493 1488 1481 1475 1471 1466 1461 1454 1446 1446 1446 1446 1440 1440 1442 1441 1439 1434 1441 1441 1437 1435 1434 1431 1429 1434 1429 1427 1422
1507 1504 1501 1499 1495 1489 1482 1475 1469 1462 1459 1455 1454 1457 1448 1447 1447 1447 1444 1443 1447 1447 1441 1441 1437 1437 1440 1440 1436 1436 1428 1427
1509 1507 1504 1502 1499 1495 1489 1482 1476 1471 1464 1461 1460 1456 1452 1453 1451 1445 1443 1440 1444 1444 1443 1442 1445 1443 1441 1441 1439 1432 1429 1427